Location: *
(48.8780°N, 19.2358°E)
Time: 16:40:09
(UTC+00:00)

Falcon 9 debris - Pass Details

Date: 18 October 2019
Orbit: 430 x 438 km, 53.0° (Epoch: 20 November)

Event Time Altitude Azimuth Distance (km) Brightness Sun altitude
Rises 17:32:03 0° 294° (WNW) 2,409 ? -17.8°
Reaches altitude 10° 17:34:10 10° 296° (WNW) 1,541 ? -18.1°
Maximum altitude 17:37:38 77° 23° (NNE) 450 ? -18.7°
Enters shadow 17:38:02 65° 84° (E) 481 ? -18.7°
